Location: Zagreb
(45.8000°N, 16.0000°E)
Time: 19:00:20
(UTC+02:00)

A-11 Canister half - Pass Details

Date: 14 August 2022
Orbit: 1524 x 1684 km, 47.3° (Epoch: 05 October)

Event Time Altitude Azimuth Distance (km) Brightness Sun altitude
Rises 07:33:16 0° 257° (WSW) 4,919 11.0 15.9°
Reaches altitude 10° 07:36:25 10° 258° (WSW) 3,940 10.6 16.4°
Maximum altitude 07:46:38 87° 349° (NNW) 1,690 9.6 18.2°
Drops below altitude 10° 07:56:48 10° 80° (E) 3,918 13.2 19.9°
Sets 07:59:55 0° 81° (E) 4,890 13.1 20.5°
